Location: *
(55.6049°S, 142.1985°W)
Time: 14:06:05
(UTC+00:00)

Cosmos 1408 Rocket - Pass Details

Date: 12 May 2021
Orbit: 602 x 630 km, 82.6° (Epoch: 17 June)

Event Time Altitude Azimuth Distance (km) Brightness Sun altitude
Rises 16:17:47 0° 192° (SSW) 2,941 6.7 -7.9°
Reaches altitude 10° 16:20:03 10° 192° (SSW) 2,023 5.9 -7.6°
Maximum altitude 16:24:33 88° 107° (ESE) 633 3.6 -7.0°
Drops below altitude 10° 16:28:57 10° 11° (N) 1,980 6.7 -6.4°
Sets 16:31:09 0° 10° (N) 2,873 7.5 -6.1°
